Find STARLINK-37540

NORAD ID: 68914 Constellation: starlink operational
LEOCIRCULARRETROGRADE

Live-Position

3D-Globus wird geladen...

Über STARLINK-37540

Beschreibung wird geladen...

Nächste Überflüge

Passes for default location (London). Set your location on the main map for personalized predictions.

Höhenverlauf

Loading altitude history...

Zweizeiliger Elementsatz

1 68914U 26097V 26125.50001156 -.02029974 11854-2 -47465-2 0 9990
2 68914 97.2868 320.4967 0001451 87.0151 151.7382 15.97136184 2064
Epoch: 5. Mai 2026 • Age: 9 hours